Location: Belvedere Heights
(33.9836°N, 117.3109°W)
Time: 10:01:04
(UTC+00:00)

FO-29 - Visible Passes

Search period start: 26 May 2024 00:00
Search period end: 05 June 2024 00:00
Orbit: 801 x 1320 km, 98.6° (Epoch: 25 May)

Date Brightness Start Highest point End Pass type
(mag) Time Alt. Az. Time Alt. Az. Time Alt. Az.
26 May 11.5 08:03:07 10° NE 08:07:30 18° E 08:07:40 18° E visible
26 May 9.7 09:46:07 10° N 09:53:11 65° WNW 09:54:08 58° WSW visible
27 May 10.2 08:51:18 10° NNE 08:58:02 47° E 08:58:16 47° ESE visible
27 May 10.9 10:36:55 10° N 10:42:34 27° WNW 10:44:44 22° W visible
28 May 11.6 07:58:25 10° NE 08:02:14 16° E 08:02:23 16° E visible
28 May 9.6 09:41:01 10° N 09:48:01 70° WNW 09:48:51 63° WSW visible
29 May 10.3 08:46:18 10° NNE 08:52:48 43° E 08:52:58 42° E visible
29 May 10.8 10:31:44 10° N 10:37:27 28° WNW 10:39:26 24° W visible
30 May 11.7 07:53:48 10° ENE 07:56:57 14° E 07:57:04 14° E visible
30 May 9.5 09:35:55 10° N 09:42:50 75° WNW 09:43:32 68° WSW visible
30 May 11.7 11:25:07 10° NW 11:26:24 11° NW 11:27:39 10° WNW visible
31 May 10.4 08:41:18 10° NNE 08:47:33 39° E 08:47:39 39° E visible
31 May 10.6 10:26:34 10° N 10:32:19 30° WNW 10:34:07 26° W visible
01 Jun 11.8 07:49:24 10° ENE 07:51:39 12° E 07:51:45 12° E visible
01 Jun 9.4 09:30:49 10° N 09:37:38 81° WNW 09:38:13 73° SW visible
01 Jun 11.6 11:19:28 10° NW 11:21:18 11° NW 11:23:05 10° WNW visible
02 Jun 10.6 08:36:19 10° NNE 08:42:17 35° E 08:42:19 35° E visible
02 Jun 10.5 10:21:23 10° N 10:27:10 31° WNW 10:28:47 28° W visible
03 Jun 11.9 07:45:45 10° E 07:46:21 10° E 07:46:24 10° E visible
03 Jun 9.3 09:25:44 10° NNE 09:32:25 87° WNW 09:32:53 78° SSW visible
03 Jun 11.5 11:13:57 10° NW 11:16:11 12° WNW 11:18:22 10° WNW visible
04 Jun 10.7 08:31:20 10° NNE 08:36:58 31° E 08:36:58 31° E visible
04 Jun 10.4 10:16:12 10° N 10:22:00 33° WNW 10:23:26 30° W visible
